| time (UTC) | temp C | wind direction | speed KPH | gust KPH | rain 1hr cm | rain 24hr cm | rain mn cm | humidity % | barometer mb |
| 20260502190044 | 13 | 269 | 1.6 | 11.3 | 0.00 | 0.00 | 0.00 | 37 | 1010.1 |
| 20260502184556 | 13 | 248 | 1.6 | 16.1 | 0.00 | 0.00 | 0.00 | 38 | 1010.1 |
| 20260502183040 | 13 | 164 | 4.8 | 16.1 | 0.00 | 0.00 | 0.00 | 34 | 1010.2 |
| 20260502181538 | 13 | 248 | 1.6 | 12.9 | 0.00 | 0.00 | 0.00 | 34 | 1010.3 |
| 20260502163047 | 13 | 78 | 3.2 | 8.0 | 0.00 | 0.00 | 0.00 | 35 | 1010.7 |
| 20260502161537 | 13 | 179 | 4.8 | 12.9 | 0.00 | 0.00 | 0.00 | 36 | 1010.7 |
| 20260502160132 | 13 | 211 | 0.0 | 14.5 | 0.00 | 0.00 | 0.00 | 38 | 1010.6 |
| 20260502151526 | 11 | 340 | 1.6 | 4.8 | 0.00 | 0.00 | 0.00 | 43 | 1010.5 |
| 20260502123106 | 3 | 57 | 0.0 | 4.8 | 0.00 | 0.00 | 0.00 | 74 | 1010.4 |
| 20260502121559 | 3 | 275 | 0.0 | 3.2 | 0.00 | 0.00 | 0.00 | 77 | 1010.5 |
| 20260502114600 | 4 | 250 | 0.0 | 0.0 | 0.00 | 0.00 | 0.00 | 72 | 1010.8 |
| 20260502113056 | 5 | 279 | 0.0 | 0.0 | 0.00 | 0.00 | 0.00 | 73 | 1010.8 |
| 20260502111556 | 6 | 280 | 0.0 | 1.6 | 0.00 | 0.00 | 0.00 | 67 | 1010.7 |
| 20260502110100 | 6 | 205 | 0.0 | 11.3 | 0.00 | 0.00 | 0.00 | 67 | 1010.8 |
| 20260502104556 | 7 | 277 | 0.0 | 16.1 | 0.00 | 0.00 | 0.00 | 69 | 1010.9 |
| 20260502103057 | 6 | 257 | 4.8 | 14.5 | 0.00 | 0.00 | 0.00 | 70 | 1011.0 |
| 20260502101613 | 5 | 277 | 1.6 | 8.0 | 0.00 | 0.00 | 0.00 | 75 | 1011.1 |
| 20260502100112 | 4 | 209 | 0.0 | 6.4 | 0.00 | 0.00 | 0.00 | 80 | 1011.1 |
| 20260502071527 | 7 | 299 | 0.0 | 3.2 | 0.00 | 0.00 | 0.00 | 68 | 1012.3 |
| 20260502070033 | 6 | 289 | 0.0 | 3.2 | 0.00 | 0.00 | 0.00 | 71 | 1012.4 |
| 20260502064527 | 7 | 277 | 0.0 | 8.0 | 0.00 | 0.00 | 0.00 | 70 | 1012.4 |
| 20260502063030 | 7 | 270 | 1.6 | 14.5 | 0.00 | 0.00 | 0.00 | 67 | 1012.4 |
| 20260502061524 | 7 | 282 | 4.8 | 14.5 | 0.00 | 0.00 | 0.00 | 70 | 1012.4 |
| 20260502060022 | 7 | 259 | 8.0 | 20.9 | 0.00 | 0.00 | 0.00 | 73 | 1012.5 |
| 20260502054523 | 7 | 260 | 0.0 | 17.7 | 0.00 | 0.00 | 0.00 | 72 | 1012.6 |
| 20260502053023 | 7 | 263 | 3.2 | 25.7 | 0.00 | 0.00 | 0.00 | 71 | 1012.6 |
| 20260502051528 | 8 | 282 | 9.7 | 19.3 | 0.00 | 0.00 | 0.00 | 71 | 1012.7 |
| 20260502050022 | 8 | 280 | 4.8 | 17.7 | 0.00 | 0.00 | 0.00 | 71 | 1012.8 |
| 20260502044522 | 8 | 280 | 0.0 | 12.9 | 0.00 | 0.00 | 0.00 | 71 | 1012.8 |
| 20260502043022 | 8 | 265 | 3.2 | 16.1 | 0.00 | 0.00 | 0.00 | 72 | 1012.8 |
| 20260502041522 | 8 | 297 | 4.8 | 14.5 | 0.00 | 0.00 | 0.00 | 72 | 1012.6 |
| 20260502040033 | 8 | 218 | 3.2 | 11.3 | 0.00 | 0.00 | 0.00 | 71 | 1012.4 |
| 20260502034521 | 8 | 296 | 3.2 | 19.3 | 0.00 | 0.00 | 0.00 | 71 | 1012.2 |
| 20260502033020 | 8 | 240 | 1.6 | 17.7 | 0.00 | 0.00 | 0.00 | 71 | 1012.1 |
| 20260502031522 | 8 | 284 | 8.0 | 19.3 | 0.00 | 0.00 | 0.00 | 71 | 1011.8 |
| 20260502030020 | 9 | 292 | 1.6 | 16.1 | 0.00 | 0.00 | 0.00 | 70 | 1011.7 |
| 20260502024535 | 9 | 227 | 4.8 | 17.7 | 0.00 | 0.00 | 0.00 | 68 | 1011.7 |
| 20260502023020 | 10 | 250 | 3.2 | 24.1 | 0.00 | 0.00 | 0.00 | 68 | 1011.4 |
| 20260502021518 | 10 | 224 | 4.8 | 19.3 | 0.00 | 0.00 | 0.00 | 68 | 1011.4 |
| 20260502020018 | 10 | 267 | 4.8 | 19.3 | 0.00 | 0.00 | 0.00 | 66 | 1011.5 |
| 20260502014526 | 11 | 253 | 1.6 | 14.5 | 0.00 | 0.00 | 0.00 | 64 | 1011.6 |
| 20260502013018 | 11 | 286 | 4.8 | 25.7 | 0.00 | 0.00 | 0.00 | 63 | 1011.6 |
| 20260502011517 | 12 | 232 | 3.2 | 14.5 | 0.00 | 0.00 | 0.00 | 58 | 1011.5 |
| 20260502010015 | 13 | 229 | 9.7 | 24.1 | 0.00 | 0.00 | 0.00 | 53 | 1011.7 |
| 20260502004515 | 15 | 178 | 0.0 | 12.9 | 0.00 | 0.00 | 0.00 | 46 | 1011.7 |
| 20260502003014 | 14 | 178 | 1.6 | 14.5 | 0.00 | 0.00 | 0.00 | 44 | 1011.7 |
| 20260502001513 | 14 | 273 | 1.6 | 16.1 | 0.00 | 0.00 | 0.00 | 43 | 1012.0 |
| 20260502000011 | 13 | 283 | 0.0 | 0.0 | 0.00 | 0.00 | 0.00 | 24 | 1012.1 |
| 20260501234512 | 14 | 41 | 3.2 | 6.4 | 0.00 | 0.00 | 0.00 | 22 | 1012.2 |
| 20260501233010 | 15 | 268 | 0.0 | 9.7 | 0.00 | 0.00 | 0.00 | 22 | 1012.1 |
| 20260501231511 | 15 | 232 | 1.6 | 9.7 | 0.00 | 0.00 | 0.00 | 20 | 1012.2 |
| 20260501230009 | 15 | 176 | 3.2 | 12.9 | 0.00 | 0.00 | 0.00 | 21 | 1012.3 |
| 20260501224512 | 16 | 83 | 8.0 | 24.1 | 0.00 | 0.00 | 0.00 | 21 | 1012.5 |
| 20260501223005 | 16 | 85 | 1.6 | 9.7 | 0.00 | 0.00 | 0.00 | 20 | 1012.8 |
| 20260501221506 | 15 | 69 | 0.0 | 8.0 | 0.00 | 0.00 | 0.00 | 21 | 1013.1 |
| 20260501220004 | 15 | 211 | 0.0 | 9.7 | 0.00 | 0.00 | 0.00 | 21 | 1013.4 |
| 20260501214504 | 15 | 150 | 6.4 | 16.1 | 0.00 | 0.00 | 0.00 | 22 | 1013.7 |
| 20260501213003 | 15 | 157 | 4.8 | 17.7 | 0.00 | 0.00 | 0.00 | 22 | 1013.6 |
| 20260501210059 | 14 | 152 | 6.4 | 12.9 | 0.00 | 0.00 | 0.00 | 23 | 1013.7 |
| 20260501204559 | 14 | 22 | 4.8 | 14.5 | 0.00 | 0.00 | 0.00 | 24 | 1013.9 |
| 20260501203106 | 14 | 263 | 6.4 | 14.5 | 0.00 | 0.00 | 0.00 | 24 | 1013.9 |
| 20260501200056 | 14 | 185 | 4.8 | 9.7 | 0.00 | 0.00 | 0.00 | 25 | 1014.0 |
| 20260501194555 | 13 | 153 | 6.4 | 20.9 | 0.00 | 0.00 | 0.00 | 25 | 1014.1 |
| 20260501193053 | 13 | 71 | 4.8 | 9.7 | 0.00 | 0.00 | 0.00 | 26 | 1014.3 |